Regional Weather Roundup
Issued by NWS Cleveland, OH

Home | Current Version | Previous Version | Text Only | Print | Product List | Glossary Off
Versions: 1 2 3 4 5 6 7 8 9 10 11 12 13 14 15 16 17 18 19 20 21 22 23 24 25 26 27 28 29 30 31 32 33 34 35 36 37 38 39 40 41 42 43 44 45 46 47 48 49 50

000
ASUS41 KCLE 200710
RWRCLE
OHIO REGIONAL WEATHER ROUNDUP
NATIONAL WEATHER SERVICE CLEVELAND, OH
200 AM EST MON NOV 20 2017

NOTE: "FAIR" INDICATES FEW OR NO CLOUDS BELOW 12,000 FEET WITH NO
SIGNIFICANT WEATHER AND/OR OBSTRUCTIONS TO VISIBILITY.

OHZ001>008-015>018-024>027-034-035-043-044-200800-
   NORTHWEST OHIO

CITY           SKY/WX    TMP DP  RH WIND       PRES   REMARKS
DEFIANCE       CLEAR     28  21  75 SW8       30.09R WCI  20
FINDLAY        CLEAR     29  22  75 SW9       30.08S WCI  20
TOLEDO EXPRESS MOCLDY    31  23  72 W13       30.06S WCI  21
TOLEDO EXEC    CLOUDY    31  23  72 SW10      30.07S WCI  22
LIMA           CLEAR     27  23  85 SW9       30.10S WCI  18
$$

OHZ009>014-019>023-028>033-038-089-200800-
   NORTHEAST OHIO

CITY           SKY/WX    TMP DP  RH WIND       PRES   REMARKS
CLE-HOPKINS    CLOUDY    32  25  75 W13       30.08R WCI  22
CLE-LAKEFRONT  CLOUDY    33  23  66 SW21G28   30.05R WCI  21
CUY CO. ARPT   NOT AVBL
LORAIN-ELYRIA  CLOUDY    30  21  69 W12       30.07R WCI  20
ASHTABULA      CLOUDY    33  22  63 W20G25    30.00R WCI  21
AKRON-CANTON   CLOUDY    31  21  66 W10       30.05S WCI  22
WOOSTER        MOCLDY    29  23  78 W12       30.07S WCI  19
MANSFIELD      CLEAR     27  23  85 SW10      30.07R WCI  17
YOUNGSTOWN     CLOUDY    30  20  66 W14       30.01R WCI  19
$$

OHZ042-051>053-060>062-070>072-077>081-200800-
  SOUTHWEST OHIO

CITY           SKY/WX    TMP DP  RH WIND       PRES   REMARKS
CINC-COVINGTON PTCLDY    28  23  81 W5        30.17S WCI  23
CINC-LUNKEN    CLEAR     28  23  81 S3        30.21S
HAMILTON       CLEAR     24  22  91 CALM      30.19S
DAYTON         CLEAR     25  23  92 SW7       30.15R WCI  17
WRIGHT-PAT AFB CLEAR     24  22  91 SW7       30.15S WCI  16
DAYTON GENERAL CLEAR     27  22  81 SW5       30.15R WCI  22
WILMINGTON     CLEAR     26  23  88 W8        30.15R WCI  18
$$

OHZ036-037-039>041-045>050-054>059-063>069-073>076-082>088-200800-
  CENTRAL AND SOUTHEAST OHIO

CITY           SKY/WX    TMP DP  RH WIND       PRES   REMARKS
COLUMBUS       CLEAR     29  23  78 SW6       30.14R WCI  23
OSU AIRPORT    CLEAR     27  23  85 SW7       30.13S WCI  19
BOLTON FIELD   CLEAR     26  23  89 SW6       30.15R WCI  19
RICKENBACK AFB CLEAR     26  24  90 SW7       30.15S WCI  19
NEWARK         CLOUDY    31  21  66 W7        30.13R WCI  24
MARION         CLEAR     28  23  81 SW9       30.11R WCI  19
LANCASTER      CLEAR     27  22  81 SW7       30.15R WCI  19
ZANESVILLE     CLEAR     30  21  69 W6        30.13R WCI  24
NEW PHILLY     NOT AVBL
$$




USA.gov is the U.S. government's official web portal to all federal, state and local government web resources and services.